Probability
0 0 0 0 0 0 0 0 0 0 0 0 0 0 0 0 0 0 0 0 0 0 0 0 0 0 0 0 0 0 0 0 0 0 0 0 1 3 4 4 2 1 2 3
0 0 0 0 0 0 0 0 0 0 0 0 0 0 0 0 0 0 0 0 0 0 0 0 0 0 0 0 0 0 0 0 0 0 0 0 1 3 4 3 1 0 1 2
0 0 0 0 0 0 0 0 0 0 0 0 0 0 0 0 0 0 0 0 0 0 0 0 0 0 0 0 0 0 1 0 0 0 0 0 1 2 2 1 0 0 0 1
0 0 0 0 0 0 0 0 0 0 0 0 0 0 0 0 0 0 0 0 0 0 0 0 0 0 0 0 0 0 0 0 0 0 0 0 0 1 1 1 0 0 0 0
0 0 0 0 0 0 0 0 0 0 0 0 0 0 0 0 0 0 0 0 0 0 0 0 0 0 0 0 0 1 1 1 0 0 0 0 0 0 0 1 0 0 0 0
0 0 0 0 0 0 0 0 0 0 0 0 0 0 0 0 0 0 0 0 0 0 0 0 0 0 0 0 1 2 2 2 1 0 0 0 0 0 0 0 0 0 0 0
0 0 0 0 0 0 0 0 0 0 0 0 0 0 0 0 0 0 0 0 0 0 0 0 0 0 0 0 1 2 2 2 1 1 1 0 0 0 0 0 0 0 0 0
0 0 0 0 0 0 0 0 0 0 0 0 0 0 0 0 0 0 0 0 0 0 0 0 0 0 0 0 0 1 1 1 1 1 1 0 0 0 0 0 0 0 0 0
0 0 0 0 0 0 0 0 0 0 0 0 0 0 0 0 0 0 0 0 0 0 0 0 0 0 0 0 0 0 0 0 0 1 1 0 0 0 0 0 0 0 0 0
0 0 0 0 0 0 0 0 0 0 0 0 0 0 0 0 0 0 0 0 0 0 0 0 0 0 0 0 0 0 0 0 0 0 0 0 0 0 0 0 0 0 0 0
0 0 0 0 0 0 0 0 0 0 0 0 0 0 0 0 0 0 0 0 0 0 0 0 0 0 0 0 0 0 0 0 0 0 0 0 0 0 0 0 0 0 0 0
0 0 0 0 0 0 0 0 0 0 0 0 0 0 0 0 0 0 0 0 0 0 0 0 0 0 0 0 0 0 0 0 0 0 0 0 0 0 0 0 0 0 0 0
0 0 0 0 0 0 0 0 0 0 0 0 0 0 0 0 0 0 0 0 0 0 0 0 0 0 0 0 0 0 0 0 0 0 0 0 0 0 0 0 0 0 0 0
0 0 0 0 0 0 0 0 0 0 0 0 0 0 0 0 0 0 0 0 0 0 0 0 0 0 0 0 0 0 0 0 0 0 0 0 0 0 0 0 0 0 0 0
0 0 0 0 0 0 0 0 0 0 0 0 0 0 0 0 0 0 0 0 0 0 0 0 0 0 0 0 0 0 0 0 0 0 0 0 0 0 0 0 0 0 0 0
0 0 0 0 0 0 0 0 0 0 0 0 0 0 0 0 0 0 0 0 0 0 0 0 0 0 0 0 0 0 0 0 0 0 0 0 0 0 0 0 0 0 0 0
0 0 0 0 0 0 0 0 0 0 0 0 0 0 0 0 0 0 0 0 0 0 0 0 0 0 0 0 0 0 0 0 0 0 0 0 0 0 0 0 0 0 0 0
0 0 0 0 0 0 0 0 0 0 0 0 0 0 0 0 0 0 0 0 0 0 0 0 0 0 0 0 0 0 0 0 0 0 0 0 0 0 0 0 0 0 0 0
0 0 0 0 0 0 0 0 0 0 0 0 0 0 0 0 0 0 0 0 0 0 0 0 0 0 0 0 0 0 0 0 0 0 0 0 0 0 0 0 0 0 0 0
0 0 0 0 0 0 0 0 0 0 0 0 0 0 0 0 0 0 0 0 0 0 0 0 0 0 0 0 0 0 0 0 0 0 0 0 0 0 0 0 0 0 0 0
0 0 0 0 0 0 0 0 0 0 0 0 0 0 0 0 0 0 0 0 0 0 0 0 0 0 0 0 0 0 0 0 0 0 0 0 0 0 0 0 0 0 0 0
0 0 0 0 0 0 0 0 0 0 0 0 0 0 0 0 0 0 0 0 0 0 0 0 0 0 0 0 0 0 0 0 0 0 0 0 0 0 0 0 0 0 0 0
0 0 0 0 0 0 0 0 0 0 0 0 0 0 0 0 0 0 0 0 0 0 0 0 0 0 0 0 0 0 0 0 0 0 0 0 0 0 0 0 0 0 0 0
0 0 0 0 0 0 0 0 0 0 0 0 0 0 0 0 0 0 0 0 0 0 0 0 0 0 0 0 0 0 0 0 0 0 0 0 0 0 0 0 0 0 0 0
0 0 0 0 0 0 0 0 0 0 0 0 0 0 0 0 0 0 0 0 0 0 0 0 0 0 0 0 0 0 0 0 0 0 0 0 0 0 0 0 0 0 0 0
0 0 0 0 0 0 0 0 0 0 0 0 0 0 0 0 0 0 0 0 0 0 0 0 0 0 0 0 0 0 0 0 0 0 0 0 0 0 0 0 0 0 0 0
Wind_Speed
1 1 3 5 6 5 3 5 8 9 6 5 8 12 13 9 6 7 7 7 7 7 6 5 4 4 4 3 3 4 4 5 5 4 4 4 5 4 4 4 5 6 6 6
1 3 5 3 3 4 5 7 8 8 4 4 7 11 9 6 5 5 7 7 7 7 7 6 4 3 1 2 3 3 5 4 5 4 4 4 4 4 4 4 5 6 6 7
3 3 2 2 3 4 6 6 6 7 7 3 5 8 5 5 5 7 8 7 7 7 7 6 5 3 2 2 3 3 4 5 5 5 3 3 3 3 3 3 4 5 7 8
4 4 2 2 3 3 5 4 5 6 5 4 3 5 7 6 8 9 10 10 9 9 8 6 5 4 3 2 1 2 3 4 4 5 5 6 5 5 4 4 4 4 6 6
3 2 1 3 4 3 5 3 3 4 2 3 2 2 7 6 9 11 11 11 11 10 8 8 6 4 4 3 1 1 2 2 3 4 5 5 5 4 3 3 4 4 4 5
3 2 2 3 2 3 2 2 2 1 1 2 2 1 6 4 8 10 10 11 11 10 9 8 7 5 5 4 2 1 1 1 1 3 4 5 5 5 4 4 5 4 3 3
4 2 1 0 1 2 2 3 4 5 3 3 2 1 5 4 6 6 9 10 11 10 9 9 8 7 6 6 5 4 3 2 1 2 2 3 4 4 5 4 4 3 3 3
1 4 2 1 1 1 0 2 2 1 3 4 3 3 5 3 4 5 6 7 8 10 9 9 8 7 6 6 6 6 6 4 3 3 2 1 2 2 2 2 2 3 3 3
1 3 3 1 1 1 0 1 2 2 1 3 4 5 5 2 5 6 7 8 9 9 9 9 9 8 7 7 7 7 6 6 5 5 4 4 2 2 2 2 2 1 1 1
2 2 3 3 1 2 1 2 1 1 1 3 5 4 4 5 6 6 7 8 8 8 8 9 8 8 8 7 7 7 8 7 6 6 4 4 3 3 2 2 2 1 1 1
1 0 4 3 0 1 1 1 1 1 2 1 4 5 2 2 2 3 5 5 6 7 8 8 8 8 9 9 9 9 8 8 8 7 6 6 5 4 3 3 2 1 1 1
1 2 2 4 3 1 1 1 2 1 1 2 2 6 2 0 1 2 3 5 5 6 7 7 8 9 9 10 10 10 9 9 8 8 8 7 6 5 5 4 3 2 2 1
2 2 2 5 4 2 1 1 1 1 1 2 2 6 1 2 2 3 3 4 5 6 7 7 8 9 9 10 10 10 10 9 8 8 8 8 8 7 6 5 4 3 2 2
2 2 3 4 4 2 3 2 2 2 2 3 5 6 5 3 3 3 3 3 3 4 6 7 8 8 8 9 9 9 9 9 9 9 8 9 8 7 6 5 5 4 3 2
3 1 2 5 5 4 4 5 4 5 5 6 6 5 7 4 2 2 2 2 3 5 6 6 6 7 7 8 9 9 9 9 8 9 9 8 7 7 6 6 5 4 4 3
2 0 2 4 3 3 5 6 5 5 4 5 4 7 4 2 0 1 1 1 2 3 4 5 6 6 7 7 7 8 8 8 7 8 8 7 7 7 7 6 5 5 5 4
1 1 1 4 5 4 6 6 6 4 5 6 6 6 1 1 2 3 3 1 1 2 2 3 4 4 5 5 5 6 6 6 7 7 7 7 7 7 7 6 6 5 5 4
2 1 0 3 4 4 5 1 4 4 5 6 5 4 3 3 2 2 2 3 2 2 2 2 2 3 4 4 5 5 5 6 7 7 7 8 8 7 7 7 6 6 4 4
3 3 1 0 3 8 6 1 3 2 5 4 5 4 1 1 2 2 2 2 3 3 2 1 1 2 2 3 4 4 5 6 6 7 7 7 7 7 7 7 7 6 5 5
2 3 2 1 2 6 5 1 1 2 5 3 4 4 3 3 0 4 2 1 1 1 1 0 1 2 2 3 3 4 5 6 6 6 7 6 6 6 6 6 6 5 4 4
1 1 2 3 4 9 6 1 2 1 6 2 4 4 5 5 5 3 1 1 1 0 1 1 1 1 2 3 3 4 4 5 5 6 6 6 6 6 5 5 5 5 4 4
5 4 5 4 4 9 2 4 5 7 3 2 3 4 4 3 2 2 2 2 1 0 0 1 1 1 2 2 3 3 4 5 5 5 5 5 6 5 5 5 5 4 4 4
6 7 5 8 9 5 3 5 4 2 3 3 3 3 4 3 3 2 2 2 2 1 1 0 0 1 2 1 1 2 4 4 4 4 5 5 5 5 4 4 5 4 4 4
5 3 3 6 9 6 6 6 4 4 4 4 3 3 4 4 3 3 2 2 1 1 1 1 1 1 2 2 2 3 4 4 4 4 5 5 5 5 5 4 4 4 4 4
6 4 4 7 8 7 5 5 5 4 3 2 2 3 4 5 4 4 3 3 2 1 1 1 1 2 3 3 3 3 3 3 4 4 4 5 5 5 5 5 4 4 3 4
6 8 7 8 6 5 6 4 2 3 4 4 3 3 3 4 5 4 3 3 2 2 1 1 2 2 3 2 3 3 2 2 3 4 4 4 4 4 4 4 5 7 6 8
Wind_Direction
115 115 219 222 214 227 250 268 284 283 285 292 281 288 298 309 321 319 313 314 314 305 292 293 277 259 236 212 199 204 204 210 192 175 173 177 189 191 185 189 187 192 187 187
70 248 242 235 229 241 255 275 284 292 298 288 296 295 300 311 317 328 332 327 326 326 332 330 317 304 246 207 204 204 211 206 196 186 179 180 184 185 182 186 190 197 192 190
214 256 250 208 241 252 259 246 262 281 310 296 308 307 316 333 346 351 352 347 347 344 333 333 339 328 308 245 212 214 214 209 196 186 175 180 169 160 168 181 197 204 199 196
246 267 247 234 248 227 272 238 245 279 313 317 351 310 313 336 350 358 354 355 354 350 346 346 343 349 343 313 260 217 210 198 194 184 183 183 183 184 190 189 196 203 202 202
254 260 226 244 252 214 242 266 267 281 279 298 308 268 299 340 349 352 351 353 354 351 352 357 356 350 350 344 330 245 206 182 190 188 189 184 192 191 182 178 186 198 199 199
254 264 216 233 263 217 248 317 320 13 52 305 289 243 298 337 337 340 348 352 351 354 358 359 2 5 6 4 11 19 89 133 179 180 184 188 191 184 180 191 190 190 188 194
331 316 290 230 334 3 60 47 13 2 4 275 309 266 275 317 336 340 344 347 349 356 1 1 4 7 10 9 17 38 52 56 75 121 164 183 189 183 192 195 185 181 188 196
19 307 297 323 198 265 315 128 142 249 277 298 330 273 273 313 337 350 352 352 359 1 3 7 13 17 11 11 18 35 41 46 52 59 52 69 138 167 183 181 174 184 193 194
159 275 308 297 251 168 140 144 172 153 295 294 295 297 303 342 0 1 1 6 8 4 7 12 17 21 18 17 22 33 38 37 37 36 33 42 62 111 122 128 146 167 158 171
152 283 309 317 17 24 122 150 91 109 353 309 309 301 298 323 342 352 356 0 2 5 9 12 16 19 19 24 28 35 37 36 34 32 32 42 54 82 94 103 109 109 104 127
151 199 318 350 3 292 35 66 98 116 152 178 303 290 256 266 318 339 341 348 360 3 8 11 14 19 24 27 30 32 33 34 32 32 34 41 40 50 67 73 80 95 72 68
163 125 290 277 268 221 201 204 171 169 269 189 226 276 338 121 333 359 350 353 3 8 9 11 16 20 24 27 28 29 29 31 28 27 31 35 34 41 48 48 42 53 54 32
145 110 358 345 345 355 309 233 183 147 136 188 221 272 343 28 14 5 360 1 3 11 13 15 18 20 21 21 22 23 23 24 24 28 31 31 29 33 35 27 24 31 31 20
108 127 177 216 246 263 275 261 204 162 192 236 237 262 295 321 332 337 345 357 3 12 18 19 17 15 16 17 16 18 18 17 19 24 27 27 23 22 22 19 19 21 18 8
85 174 242 256 261 250 252 256 232 207 209 220 247 253 268 266 258 278 319 353 11 12 14 13 11 10 13 15 13 14 13 12 16 23 23 18 15 19 22 21 17 12 10 355
51 158 310 300 296 274 268 259 241 231 221 231 255 271 264 240 212 281 295 336 354 357 1 2 6 8 8 10 8 8 7 5 13 22 18 11 13 14 14 15 13 12 9 360
35 83 352 293 311 329 282 244 208 218 211 192 219 241 215 251 237 225 223 225 277 320 337 349 352 353 357 359 0 3 360 1 12 16 13 10 9 10 6 4 5 4 1 357
145 111 149 304 348 278 253 239 190 216 247 222 234 240 219 238 253 249 208 199 229 261 296 320 338 345 349 351 355 356 2 9 12 12 8 3 2 1 358 0 358 354 351 349
168 147 127 358 307 286 296 242 179 201 280 226 218 234 202 89 11 309 231 202 213 217 229 254 301 334 348 350 347 358 8 11 12 6 359 355 354 351 351 352 347 344 346 347
92 114 130 153 276 262 270 262 179 100 292 251 194 198 169 118 337 268 236 193 210 210 190 180 10 14 6 343 348 15 10 8 1 350 343 342 344 343 338 335 334 335 337 335
138 133 173 199 247 267 261 224 114 160 263 266 188 187 175 192 216 235 177 191 184 195 162 106 69 12 331 339 4 14 3 350 337 335 336 339 338 333 329 330 332 334 335 338
188 181 197 178 220 260 223 137 186 229 270 223 195 189 192 217 233 197 181 177 149 101 59 75 58 337 328 352 13 358 335 326 332 333 335 332 331 332 334 331 331 335 334 337
211 198 195 201 223 252 213 217 245 229 243 238 210 211 187 197 219 214 196 179 169 166 178 139 229 305 320 338 356 318 311 322 327 330 331 328 330 332 331 332 336 340 341 340
262 207 223 265 266 262 256 256 268 245 242 244 224 204 187 200 208 207 202 197 192 184 191 195 213 284 303 307 310 296 309 321 325 327 329 332 336 337 337 336 336 335 333 329
236 189 225 263 279 298 281 247 250 257 251 240 233 206 198 191 205 205 207 209 208 212 209 203 223 253 274 287 295 307 313 323 324 324 329 331 331 329 329 327 322 320 307 311
205 190 195 234 239 231 268 280 239 233 238 223 208 217 214 198 202 202 212 210 203 209 212 233 244 259 270 271 281 298 308 319 325 325 326 325 325 325 324 323 325 326 325 323